Thomson, GA

5:01 PM EST on February 24, 2017 (GMT -0500)
Thomson-McDuffie County

Weather History for KHQU - March, 2013

Change the Weather History Date:

Sunday, March 31, 2013

  Actual Average (KDNL) Record (KDNL)
Temperature  
Mean Temperature 65 °F -  
Max Temperature 75 °F 70 °F 82 °F (1998)
Min Temperature 55 °F 50 °F 33 °F (2003)
Growing Degree Days 15 (Base 50)    
Moisture  
Dew Point 57 °F    
Average Humidity 79    
Maximum Humidity 100    
Minimum Humidity 50    
Precipitation  
Precipitation 0.00 in - - ()
Sea Level Pressure  
Sea Level Pressure 29.99 in    
Wind  
Wind Speed 6 mph (SW)    
Max Wind Speed 14 mph    
Max Gust Speed 26 mph    
Visibility 10 miles    
Events      
Averages and records for this station are not official NWS values.
T = Trace of Precipitation, MM = Missing Value Source: NWS Daily Summary

Daily Weather History Graph

Daily Weather History Graph

Search for Another Location

Airport or City:

Trip Planner

Search our weather history database for the weather conditions in past years. The results will help you decide how hot, cold, wet, or windy it might be!

Date:

Astronomy

Mar. 31, 2013 Rise Set
Actual Time 7:18 AM EDT 7:50 PM EDT
Civil Twilight 6:53 AM EDT 8:15 PM EDT
Nautical Twilight 6:24 AM EDT 8:44 PM EDT
Astronomical Twilight 5:54 AM EDT 9:14 PM EDT
Moon No Moon Rise 10:17 AM EDT (3/31)
Length of Visible Light 13h 21m
Length of Day
12h 31m
Waning Gibbous, 78% of the Moon is Illuminated
Mar 31
Waning Gibbous
Apr 3
Last Quarter
Apr 10
New
Apr 18
First Quarter
Apr 25
Full

Hourly Weather History & Observations

Time (EDT) Temp. Dew Point Humidity Pressure Visibility Wind Dir Wind Speed Gust Speed Precip Events Conditions
1:35 AM 56.5 °F 56.5 °F 100% 30.07 in 7.0 mi Calm Calm - N/A   Unknown
1:55 AM 55.6 °F 55.6 °F 100% 30.06 in 7.0 mi Calm Calm - N/A   Mostly Cloudy
2:15 AM 55.9 °F 55.9 °F 100% 30.06 in 5.0 mi SSE 3.5 mph - N/A   Overcast
2:35 AM 56.3 °F 56.3 °F 100% 30.06 in 7.0 mi Calm Calm - N/A   Overcast
2:55 AM 55.8 °F 55.8 °F 100% 30.05 in 5.0 mi Calm Calm - N/A   Overcast
3:15 AM 55.8 °F 55.8 °F 100% 30.05 in 7.0 mi Calm Calm - N/A   Overcast
3:35 AM 55.4 °F 55.4 °F 100% 30.04 in 5.0 mi Calm Calm - N/A   Overcast
3:55 AM 58.1 °F 55.4 °F 91% 30.04 in 10.0 mi SSW 5.8 mph - N/A   Overcast
4:15 AM 59.7 °F 54.5 °F 83% 30.03 in 10.0 mi SSW 6.9 mph - N/A   Overcast
4:35 AM 60.3 °F 54.1 °F 80% 30.03 in 10.0 mi SSW 8.1 mph - N/A   Overcast
4:55 AM 60.3 °F 54.3 °F 81% 30.03 in 10.0 mi SSW 8.1 mph - N/A   Overcast
5:15 AM 60.1 °F 54.5 °F 82% 30.03 in 10.0 mi SSW 6.9 mph 16.1 mph N/A   Mostly Cloudy
5:35 AM 60.1 °F 54.7 °F 82% 30.03 in 10.0 mi SSW 9.2 mph - N/A   Mostly Cloudy
5:55 AM 59.9 °F 55.2 °F 84% 30.03 in 10.0 mi SSW 6.9 mph - N/A   Overcast
6:15 AM 58.1 °F 56.1 °F 93% 30.02 in 10.0 mi SSW 5.8 mph - N/A   Overcast
6:35 AM 58.3 °F 55.8 °F 91% 30.02 in 10.0 mi SSW 6.9 mph - N/A   Overcast
6:55 AM 58.5 °F 55.6 °F 90% 30.02 in 10.0 mi SSW 6.9 mph - N/A   Overcast
7:15 AM 59.0 °F 55.4 °F 88% 30.02 in 10.0 mi SSW 6.9 mph - N/A   Overcast
7:35 AM 59.2 °F 55.2 °F 87% 30.03 in 10.0 mi SSW 6.9 mph 17.3 mph N/A   Overcast
7:55 AM 59.2 °F 54.7 °F 85% 30.03 in 7.0 mi SSW 10.4 mph 17.3 mph N/A   Overcast
8:15 AM 59.4 °F 54.1 °F 83% 30.03 in 10.0 mi SSW 9.2 mph - N/A   Overcast
8:35 AM 59.9 °F 54.1 °F 81% 30.03 in 10.0 mi SSW 10.4 mph 18.4 mph N/A   Overcast
8:55 AM 59.7 °F 54.0 °F 81% 30.03 in 10.0 mi SSW 8.1 mph 17.3 mph N/A   Overcast
9:15 AM 60.1 °F 54.1 °F 81% 30.03 in 10.0 mi SSW 8.1 mph 16.1 mph N/A   Overcast
9:35 AM 61.0 °F 54.9 °F 80% 30.03 in 10.0 mi SSW 9.2 mph - N/A   Mostly Cloudy
9:55 AM 61.9 °F 55.6 °F 80% 30.04 in 10.0 mi SW 6.9 mph 16.1 mph N/A   Mostly Cloudy
10:15 AM 63.9 °F 56.3 °F 76% 30.04 in 10.0 mi SSW 9.2 mph 19.6 mph N/A   Scattered Clouds
10:35 AM 65.3 °F 56.7 °F 74% 30.03 in 10.0 mi SW 12.7 mph 18.4 mph N/A   Scattered Clouds
10:55 AM 67.1 °F 57.2 °F 70% 30.03 in 10.0 mi WSW 4.6 mph - N/A   Scattered Clouds
11:15 AM 67.5 °F 56.7 °F 68% 30.03 in 10.0 mi WSW 12.7 mph 18.4 mph N/A   Mostly Cloudy
11:35 AM 66.7 °F 57.0 °F 71% 30.03 in 10.0 mi West 13.8 mph 17.3 mph N/A   Overcast
11:55 AM 67.1 °F 57.2 °F 70% 30.03 in 10.0 mi SW 12.7 mph 17.3 mph N/A   Overcast
12:15 PM 68.2 °F 57.0 °F 67% 30.02 in 10.0 mi West 12.7 mph 19.6 mph N/A   Mostly Cloudy
12:35 PM 68.4 °F 55.0 °F 62% 30.02 in 10.0 mi West 13.8 mph 21.9 mph N/A   Mostly Cloudy
12:55 PM 70.5 °F 55.4 °F 59% 30.01 in 10.0 mi WSW 13.8 mph 21.9 mph N/A   Scattered Clouds
1:15 PM 72.0 °F 56.7 °F 58% 30.01 in 10.0 mi West 13.8 mph 21.9 mph N/A   Mostly Cloudy
1:35 PM 71.4 °F 56.5 °F 59% 30.00 in 10.0 mi WSW 12.7 mph 20.7 mph N/A   Mostly Cloudy
1:55 PM 70.9 °F 56.5 °F 60% 30.00 in 10.0 mi WSW 10.4 mph 19.6 mph N/A   Mostly Cloudy
2:15 PM 72.7 °F 56.5 °F 57% 29.98 in 10.0 mi SW 11.5 mph 16.1 mph N/A   Mostly Cloudy
2:35 PM 74.5 °F 56.8 °F 54% 29.97 in 10.0 mi WSW 11.5 mph 25.3 mph N/A   Scattered Clouds
2:55 PM 73.8 °F 56.7 °F 55% 29.96 in 10.0 mi WSW 6.9 mph 18.4 mph N/A   Scattered Clouds
3:15 PM 75.4 °F 55.6 °F 50% 29.94 in 10.0 mi SW 6.9 mph 18.4 mph N/A   Scattered Clouds
3:35 PM 72.9 °F 55.6 °F 55% 29.94 in 10.0 mi WSW 6.9 mph - N/A   Mostly Cloudy
3:55 PM 75.4 °F 56.8 °F 52% 29.93 in 10.0 mi SW 10.4 mph 17.3 mph N/A   Mostly Cloudy
4:15 PM 72.5 °F 56.5 °F 57% 29.94 in 10.0 mi SW 10.4 mph 19.6 mph N/A   Mostly Cloudy
4:35 PM 63.3 °F 61.0 °F 92% 29.95 in 4.0 mi WNW 9.2 mph 26.5 mph N/A   Overcast
4:55 PM 63.7 °F 62.2 °F 95% 29.95 in 10.0 mi West 4.6 mph - N/A   Mostly Cloudy
5:15 PM 67.1 °F 62.8 °F 86% 29.94 in 10.0 mi Calm Calm - N/A   Scattered Clouds
5:35 PM 68.0 °F 62.2 °F 82% 29.93 in 10.0 mi Calm Calm - N/A   Scattered Clouds
5:55 PM 70.3 °F 61.7 °F 74% 29.92 in 10.0 mi WSW 10.4 mph - N/A   Scattered Clouds
6:15 PM 71.6 °F 59.9 °F 66% 29.92 in 10.0 mi WSW 11.5 mph - N/A   Scattered Clouds
6:35 PM 70.9 °F 59.2 °F 66% 29.92 in 10.0 mi WSW 9.2 mph - N/A   Scattered Clouds
6:55 PM 71.1 °F 57.6 °F 62% 29.92 in 10.0 mi WSW 10.4 mph 17.3 mph N/A   Mostly Cloudy
7:15 PM 70.5 °F 57.9 °F 64% 29.91 in 10.0 mi WSW 5.8 mph - N/A   Overcast
7:35 PM 68.7 °F 58.1 °F 69% 29.91 in 10.0 mi WSW 5.8 mph - N/A   Overcast
7:55 PM 67.8 °F 58.3 °F 71% 29.91 in 10.0 mi WSW 4.6 mph - N/A   Overcast
8:15 PM 65.5 °F 59.2 °F 80% 29.92 in 10.0 mi Calm Calm - N/A   Mostly Cloudy
8:35 PM 63.9 °F 59.4 °F 85% 29.92 in 10.0 mi Calm Calm - N/A   Overcast
8:55 PM 63.7 °F 59.4 °F 86% 29.93 in 10.0 mi Calm Calm - N/A   Overcast
9:15 PM 63.5 °F 59.4 °F 86% 29.94 in 10.0 mi Calm Calm - N/A   Overcast
9:35 PM 62.8 °F 59.7 °F 90% 29.94 in 10.0 mi SSE 4.6 mph - N/A   Overcast
9:55 PM 62.8 °F 60.3 °F 91% 29.94 in 10.0 mi South 4.6 mph - N/A   Overcast
10:15 PM 63.1 °F 60.1 °F 90% 29.95 in 10.0 mi South 5.8 mph - N/A   Overcast
10:35 PM 62.8 °F 60.8 °F 93% 29.95 in 10.0 mi South 9.2 mph - N/A   Overcast
10:55 PM 62.2 °F 61.2 °F 96% 29.94 in 10.0 mi South 6.9 mph - N/A   Overcast
11:15 PM 61.9 °F 61.5 °F 99% 29.95 in 10.0 mi South 5.8 mph - N/A   Overcast
11:35 PM 61.7 °F 61.3 °F 99% 29.94 in 10.0 mi South 5.8 mph - N/A   Overcast
11:55 PM 61.9 °F 61.3 °F 98% 29.94 in 10.0 mi Calm Calm - N/A   Overcast